| time (UTC) | temp F | wind direction | speed MPH | gust MPH | rain 1hr in | rain 24hr in | rain mn in | humidity % | barometer mb |
| 20260502163110 | 58 | 229 | 10.0 | 17.0 | 0.00 | 0.00 | 0.00 | 41 | 1017.3 |
| 20260502161601 | 57 | 251 | 8.0 | 20.0 | 0.00 | 0.00 | 0.00 | 41 | 1017.5 |
| 20260502160104 | 56 | 258 | 10.0 | 17.0 | 0.00 | 0.00 | 0.00 | 41 | 1017.9 |
| 20260502151613 | 54 | 253 | 9.0 | 15.0 | 0.00 | 0.00 | 0.00 | 48 | 1018.5 |
| 20260502150104 | 53 | 235 | 11.0 | 16.0 | 0.00 | 0.00 | 0.00 | 48 | 1018.7 |
| 20260502130108 | 41 | 244 | 7.0 | 10.0 | 0.00 | 0.00 | 0.00 | 73 | 1019.3 |
| 20260502123106 | 36 | 238 | 5.0 | 8.0 | 0.00 | 0.00 | 0.00 | 79 | 1019.2 |
| 20260502121601 | 35 | 216 | 3.0 | 5.0 | 0.00 | 0.00 | 0.00 | 83 | 1019.2 |
| 20260502120104 | 32 | 30 | 1.0 | 3.0 | 0.00 | 0.00 | 0.00 | 84 | 1019.3 |
| 20260502114604 | 31 | 247 | 1.0 | 4.0 | 0.00 | 0.00 | 0.00 | 83 | 1019.2 |
| 20260502113101 | 31 | 230 | 2.0 | 4.0 | 0.00 | 0.00 | 0.00 | 83 | 1019.2 |
| 20260502111558 | 30 | 230 | 3.0 | 4.0 | 0.00 | 0.00 | 0.00 | 83 | 1019.2 |
| 20260502110105 | 31 | 243 | 3.0 | 4.0 | 0.00 | 0.00 | 0.00 | 82 | 1019.3 |
| 20260502104559 | 31 | 243 | 3.0 | 4.0 | 0.00 | 0.00 | 0.00 | 82 | 1019.3 |
| 20260502103102 | 31 | 243 | 3.0 | 4.0 | 0.00 | 0.00 | 0.00 | 82 | 1019.3 |
| 20260502101606 | 32 | 243 | 3.0 | 5.0 | 0.00 | 0.00 | 0.00 | 81 | 1019.3 |
| 20260502070101 | 36 | 242 | 3.0 | 5.0 | 0.00 | 0.00 | 0.00 | 72 | 1019.3 |
| 20260502064559 | 36 | 245 | 3.0 | 5.0 | 0.00 | 0.00 | 0.00 | 74 | 1019.5 |
| 20260502063100 | 35 | 244 | 0.0 | 3.0 | 0.00 | 0.00 | 0.00 | 73 | 1019.5 |
| 20260502061558 | 36 | 244 | 4.0 | 5.0 | 0.00 | 0.00 | 0.00 | 72 | 1019.5 |
| 20260502060104 | 36 | 246 | 3.0 | 5.0 | 0.00 | 0.00 | 0.00 | 72 | 1019.7 |
| 20260502054600 | 37 | 248 | 6.0 | 8.0 | 0.00 | 0.00 | 0.00 | 70 | 1019.6 |
| 20260502053105 | 37 | 317 | 0.0 | 3.0 | 0.00 | 0.00 | 0.00 | 70 | 1019.6 |
| 20260502051601 | 38 | 317 | 1.0 | 3.0 | 0.00 | 0.00 | 0.00 | 68 | 1019.5 |
| 20260502050058 | 38 | 287 | 1.0 | 3.0 | 0.00 | 0.00 | 0.00 | 67 | 1019.4 |
| 20260502044558 | 38 | 321 | 1.0 | 2.0 | 0.00 | 0.00 | 0.00 | 66 | 1019.4 |
| 20260502043108 | 38 | 321 | 2.0 | 3.0 | 0.00 | 0.00 | 0.00 | 67 | 1019.3 |
| 20260502041559 | 39 | 322 | 2.0 | 3.0 | 0.00 | 0.00 | 0.00 | 63 | 1019.3 |
| 20260502040100 | 39 | 322 | 1.0 | 2.0 | 0.00 | 0.00 | 0.00 | 63 | 1019.3 |
| 20260502034559 | 39 | 0 | 0.0 | 1.0 | 0.00 | 0.00 | 0.00 | 65 | 1019.4 |
| 20260502033100 | 39 | 323 | 1.0 | 2.0 | 0.00 | 0.00 | 0.00 | 65 | 1019.5 |
| 20260502031602 | 40 | 323 | 1.0 | 2.0 | 0.00 | 0.00 | 0.00 | 62 | 1019.4 |
| 20260502030105 | 40 | 139 | 1.0 | 3.0 | 0.00 | 0.00 | 0.00 | 62 | 1019.4 |
| 20260502024559 | 40 | 0 | 0.0 | 0.0 | 0.00 | 0.00 | 0.00 | 60 | 1019.4 |
| 20260502023100 | 41 | 0 | 0.0 | 0.0 | 0.00 | 0.00 | 0.00 | 60 | 1019.4 |
| 20260502021607 | 43 | 0 | 0.0 | 2.0 | 0.00 | 0.00 | 0.00 | 58 | 1019.5 |
| 20260502014604 | 47 | 0 | 0.0 | 0.0 | 0.00 | 0.02 | 0.00 | 49 | 1018.9 |
| 20260502013102 | 48 | 0 | 0.0 | 1.0 | 0.00 | 0.02 | 0.00 | 45 | 1018.9 |
| 20260502011600 | 48 | 0 | 0.0 | 5.0 | 0.00 | 0.02 | 0.00 | 47 | 1018.8 |
| 20260502004606 | 50 | 360 | 3.0 | 8.0 | 0.00 | 0.02 | 0.00 | 43 | 1018.7 |
| 20260502003100 | 51 | 281 | 5.0 | 10.0 | 0.00 | 0.02 | 0.00 | 40 | 1018.7 |
| 20260502001558 | 52 | 299 | 10.0 | 14.0 | 0.00 | 0.02 | 0.00 | 39 | 1018.7 |
| 20260502000113 | 52 | 10 | 11.0 | 15.0 | 0.00 | 0.02 | 0.00 | 39 | 1018.6 |
| 20260501234606 | 52 | 333 | 9.0 | 14.0 | 0.00 | 0.02 | 0.00 | 40 | 1018.7 |
| 20260501233103 | 52 | 311 | 5.0 | 11.0 | 0.00 | 0.02 | 0.00 | 39 | 1018.8 |
| 20260501231600 | 52 | 320 | 6.0 | 14.0 | 0.00 | 0.02 | 0.00 | 41 | 1018.7 |
| 20260501230106 | 51 | 309 | 8.0 | 15.0 | 0.00 | 0.02 | 0.00 | 39 | 1018.8 |
| 20260501224603 | 51 | 317 | 9.0 | 16.0 | 0.00 | 0.02 | 0.00 | 38 | 1018.6 |
| 20260501223103 | 52 | 323 | 9.0 | 16.0 | 0.00 | 0.02 | 0.00 | 40 | 1018.7 |
| 20260501221603 | 51 | 320 | 6.0 | 16.0 | 0.00 | 0.02 | 0.00 | 42 | 1018.7 |
| 20260501214557 | 53 | 360 | 8.0 | 15.0 | 0.00 | 0.02 | 0.00 | 43 | 1018.8 |
| 20260501213105 | 50 | 13 | 4.0 | 14.0 | 0.00 | 0.02 | 0.00 | 43 | 1018.8 |
| 20260501211559 | 52 | 9 | 6.0 | 14.0 | 0.00 | 0.02 | 0.00 | 43 | 1018.8 |
| 20260501210059 | 50 | 338 | 5.0 | 15.0 | 0.00 | 0.02 | 0.00 | 42 | 1019.0 |
| 20260501204605 | 50 | 350 | 10.0 | 16.0 | 0.00 | 0.02 | 0.00 | 43 | 1019.1 |
| 20260501203100 | 52 | 11 | 5.0 | 16.0 | 0.00 | 0.02 | 0.00 | 43 | 1019.1 |
| 20260501201611 | 49 | 360 | 3.0 | 13.0 | 0.00 | 0.02 | 0.00 | 43 | 1019.1 |
| 20260501200059 | 49 | 9 | 8.0 | 14.0 | 0.00 | 0.02 | 0.00 | 43 | 1019.0 |
| 20260501194559 | 51 | 36 | 5.0 | 14.0 | 0.00 | 0.02 | 0.00 | 42 | 1019.2 |
| 20260501193101 | 49 | 338 | 11.0 | 15.0 | 0.00 | 0.02 | 0.00 | 44 | 1019.2 |
| 20260501191600 | 50 | 288 | 8.0 | 13.0 | 0.00 | 0.02 | 0.00 | 44 | 1019.1 |
| 20260501190058 | 50 | 360 | 7.0 | 17.0 | 0.00 | 0.02 | 0.00 | 46 | 1019.3 |
| 20260501184600 | 50 | 350 | 7.0 | 13.0 | 0.00 | 0.02 | 0.00 | 47 | 1019.2 |
| 20260501183059 | 49 | 23 | 7.0 | 17.0 | 0.00 | 0.02 | 0.00 | 50 | 1019.2 |
| 20260501181558 | 50 | 20 | 1.0 | 13.0 | 0.00 | 0.02 | 0.00 | 47 | 1019.4 |
| 20260501180057 | 48 | 350 | 7.0 | 16.0 | 0.00 | 0.02 | 0.00 | 47 | 1019.4 |
| 20260501174557 | 49 | 360 | 5.0 | 14.0 | 0.00 | 0.02 | 0.00 | 49 | 1019.5 |
| 20260501173059 | 48 | 345 | 7.0 | 11.0 | 0.00 | 0.02 | 0.00 | 49 | 1019.6 |
| 20260501171559 | 48 | 350 | 9.0 | 17.0 | 0.00 | 0.02 | 0.00 | 50 | 1019.5 |
| 20260501170100 | 48 | 360 | 5.0 | 13.0 | 0.00 | 0.02 | 0.00 | 51 | 1019.3 |